Weather History for Conway, SC

Change the Weather History Date:

Monday, December 23, 2013

  Actual Average Record
Temperature  
Mean Temperature 70 °F -  
Max Temperature 80 °F 57 °F 80 °F (2013)
Min Temperature 59 °F 35 °F 26 °F (2012)
Cooling Degree Days 4    
Growing Degree Days 20 (Base 50)    
Moisture  
Dew Point 68 °F    
Average Humidity 93    
Maximum Humidity 100    
Minimum Humidity 61    
Precipitation  
Precipitation 0.32 in - - ()
Sea Level Pressure  
Sea Level Pressure 30.09 in    
Wind  
Wind Speed 7 mph (SSW)    
Max Wind Speed 16 mph    
Max Gust Speed 21 mph    
Visibility 7 miles    
Events Rain    
Averages and records for this station are not official NWS values.
T = Trace of Precipitation, MM = Missing Value Source: NWS Daily Summary

Daily Weather History Graph

Daily Weather History Graph

Search for Another Location

Airport:

Trip Planner

Search our weather history database for the weather conditions in past years. The results will help you decide how hot, cold, wet, or windy it might be!

Date:

Astronomy

Dec. 23, 2013 Rise Set
Actual Time 7:18 AM EST 5:12 PM EST
Civil Twilight 6:50 AM EST 5:40 PM EST
Nautical Twilight 6:19 AM EST 6:11 PM EST
Astronomical Twilight 5:49 AM EST 6:42 PM EST
Moon 11:04 PM EST (12/23) 10:57 AM EST (12/23)
Length of Visible Light 10h 49m
Length of Day
9h 54m
Waning Gibbous, 68% of the Moon is Illuminated
Dec 23
Waning Gibbous
Dec 25
Last Quarter
Jan 1
New
Jan 7
First Quarter
Jan 15
Full

Hourly Weather History & Observations

Time (EST) Temp. Heat Index Dew Point Humidity Pressure Visibility Wind Dir Wind Speed Gust Speed Precip Events Conditions
12:15 AM 69.8 °F - 69.8 °F 100% 30.12 in 5.0 mi South 6.9 mph - N/A   Overcast
12:35 AM 69.8 °F - 69.8 °F 100% 30.12 in 5.0 mi South 8.1 mph - N/A   Overcast
12:55 AM 69.8 °F - 69.8 °F 100% 30.12 in 5.0 mi SSW 8.1 mph - N/A   Overcast
1:15 AM 69.8 °F - 69.8 °F 100% 30.13 in 7.0 mi SSW 5.8 mph - N/A   Overcast
1:35 AM 69.8 °F - 69.8 °F 100% 30.12 in 5.0 mi SSW 5.8 mph - N/A   Overcast
1:55 AM 69.8 °F - 69.8 °F 100% 30.12 in 5.0 mi South 4.6 mph - N/A   Overcast
2:15 AM 69.8 °F - 69.8 °F 100% 30.11 in 5.0 mi South 8.1 mph - N/A   Scattered Clouds
2:35 AM 69.8 °F - 69.8 °F 100% 30.11 in 5.0 mi South 5.8 mph - N/A   Mostly Cloudy
2:55 AM 69.8 °F - 69.8 °F 100% 30.10 in 5.0 mi South 9.2 mph - N/A   Overcast
3:15 AM 69.8 °F - 69.8 °F 100% 30.09 in 7.0 mi South 11.5 mph - N/A   Overcast
3:35 AM 71.6 °F - 71.6 °F 100% 30.09 in 7.0 mi South 12.7 mph - N/A   Overcast
3:55 AM 71.6 °F - 71.6 °F 100% 30.09 in 7.0 mi South 9.2 mph - N/A   Overcast
4:15 AM 71.6 °F - 71.6 °F 100% 30.09 in 7.0 mi SSW 8.1 mph - N/A Rain Light Rain
4:35 AM 71.6 °F - 71.6 °F 100% 30.09 in 7.0 mi SSW 9.2 mph - N/A Rain Rain
4:55 AM 69.8 °F - 69.8 °F 100% 30.09 in 5.0 mi SSW 11.5 mph 17.3 mph 0.04 in Rain Light Rain
5:15 AM 69.8 °F - 69.8 °F 100% 30.08 in 7.0 mi South 5.8 mph - N/A   Overcast
5:35 AM 69.8 °F - 69.8 °F 100% 30.09 in 5.0 mi SSW 6.9 mph - N/A   Overcast
5:55 AM 69.8 °F - 69.8 °F 100% 30.09 in 7.0 mi SSW 8.1 mph - N/A   Overcast
6:15 AM 69.8 °F - 69.8 °F 100% 30.09 in 7.0 mi South 6.9 mph - N/A   Overcast
6:35 AM 71.6 °F - 71.6 °F 100% 30.09 in 7.0 mi South 6.9 mph - N/A   Overcast
6:55 AM 69.8 °F - 69.8 °F 100% 30.09 in 7.0 mi SSW 8.1 mph - N/A   Overcast
7:15 AM 69.8 °F - 69.8 °F 100% 30.11 in 7.0 mi SSW 5.8 mph - N/A   Overcast
7:35 AM 69.8 °F - 69.8 °F 100% 30.11 in 5.0 mi SSW 5.8 mph - N/A   Overcast
7:55 AM 69.8 °F - 69.8 °F 100% 30.11 in 5.0 mi SSW 6.9 mph - N/A   Overcast
8:15 AM 71.6 °F - 71.6 °F 100% 30.12 in 5.0 mi South 8.1 mph - N/A   Overcast
8:35 AM 71.6 °F - 71.6 °F 100% 30.12 in 5.0 mi SSW 9.2 mph - N/A   Mostly Cloudy
8:55 AM 71.6 °F - 71.6 °F 100% 30.12 in 5.0 mi SSW 8.1 mph - N/A   Mostly Cloudy
9:15 AM 73.4 °F - 73.4 °F 100% 30.12 in 5.0 mi SSW 10.4 mph - N/A   Overcast
9:35 AM 73.4 °F - 71.6 °F 94% 30.13 in 5.0 mi SSW 9.2 mph 16.1 mph N/A   Overcast
9:55 AM 73.4 °F - 71.6 °F 94% 30.13 in 5.0 mi SSW 10.4 mph - N/A   Overcast
10:15 AM 73.4 °F - 71.6 °F 94% 30.13 in 5.0 mi SW 8.1 mph - N/A   Overcast
10:35 AM 73.4 °F - 71.6 °F 94% 30.13 in 7.0 mi SW 6.9 mph - N/A   Overcast
10:55 AM 75.2 °F - 71.6 °F 89% 30.12 in 7.0 mi SW 4.6 mph - N/A   Overcast
11:15 AM 75.2 °F - 71.6 °F 89% 30.11 in 7.0 mi SSW 6.9 mph - N/A   Mostly Cloudy
11:35 AM 75.2 °F - 71.6 °F 89% 30.10 in 5.0 mi SW 9.2 mph - N/A   Overcast
11:55 AM 77.0 °F - 69.8 °F 78% 30.09 in 7.0 mi SW 8.1 mph - N/A   Overcast
12:15 PM 77.0 °F - 68.0 °F 74% 30.08 in 7.0 mi SW 8.1 mph - N/A   Mostly Cloudy
12:35 PM 78.8 °F - 68.0 °F 69% 30.07 in 7.0 mi SW 8.1 mph 17.3 mph N/A   Mostly Cloudy
12:55 PM 78.8 °F - 68.0 °F 69% 30.06 in 5.0 mi SSW 11.5 mph 17.3 mph N/A   Haze
1:15 PM 78.8 °F - 66.2 °F 65% 30.05 in 5.0 mi SSW 9.2 mph - N/A   Haze
1:35 PM 80.6 °F 83.2 °F 68.0 °F 65% 30.04 in 7.0 mi South 16.1 mph 20.7 mph N/A   Mostly Cloudy
1:55 PM 78.8 °F - 66.2 °F 65% 30.03 in 7.0 mi SSW 11.5 mph 20.7 mph N/A   Mostly Cloudy
2:15 PM 78.8 °F - 66.2 °F 65% 30.03 in 7.0 mi SSW 10.4 mph 18.4 mph N/A   Mostly Cloudy
2:35 PM 80.6 °F 82.7 °F 66.2 °F 61% 30.02 in 7.0 mi SSW 11.5 mph - N/A   Mostly Cloudy
2:55 PM 78.8 °F - 64.4 °F 61% 30.02 in 7.0 mi SW 10.4 mph - N/A   Mostly Cloudy
3:15 PM 78.8 °F - 64.4 °F 61% 30.02 in 7.0 mi SSW 10.4 mph - N/A   Overcast
3:35 PM 77.0 °F - 66.2 °F 69% 30.02 in 7.0 mi South 5.8 mph - N/A   Overcast
3:55 PM 73.4 °F - 68.0 °F 83% 30.03 in 10.0 mi South 3.5 mph - N/A   Drizzle
4:15 PM 73.4 °F - 69.8 °F 88% 30.04 in 7.0 mi South 3.5 mph - N/A   Overcast
4:35 PM 71.6 °F - 71.6 °F 100% 30.04 in 10.0 mi South 4.6 mph - N/A Rain Light Rain
4:55 PM 71.6 °F - 71.6 °F 100% 30.04 in 7.0 mi South 6.9 mph - N/A   Overcast
5:15 PM 69.8 °F - 69.8 °F 100% 30.05 in 5.0 mi South 5.8 mph - N/A   Overcast
5:35 PM 69.8 °F - 69.8 °F 100% 30.05 in 10.0 mi South 4.6 mph - N/A Rain Light Rain
5:55 PM 68.0 °F - 68.0 °F 100% 30.06 in 7.0 mi SSW 4.6 mph - N/A Rain Light Rain
6:15 PM 68.0 °F - 68.0 °F 100% 30.06 in 7.0 mi SW 3.5 mph - 0.01 in Rain Rain
6:35 PM 66.2 °F - 66.2 °F 100% 30.08 in 5.0 mi West 6.9 mph - 0.05 in Rain Heavy Rain
6:55 PM 60.8 °F - 60.8 °F 100% 30.09 in 4.0 mi NW 8.1 mph - 0.14 in Rain Heavy Rain
7:15 PM 60.8 °F - 60.8 °F 100% 30.10 in 7.0 mi Calm Calm - 0.04 in Rain Rain
7:35 PM 60.8 °F - 60.8 °F 100% 30.11 in 7.0 mi Calm Calm - 0.07 in Rain Rain
7:55 PM 60.8 °F - 60.8 °F 100% 30.11 in 5.0 mi Calm Calm - 0.08 in Rain Light Rain
8:15 PM 60.8 °F - 60.8 °F 100% 30.10 in 7.0 mi Calm Calm - N/A Rain Light Rain
8:35 PM 60.8 °F - 60.8 °F 100% 30.11 in 10.0 mi Calm Calm - N/A Rain Rain
8:55 PM 60.8 °F - 60.8 °F 100% 30.11 in 7.0 mi Calm Calm - 0.01 in Rain Rain
9:15 PM 60.8 °F - 60.8 °F 100% 30.12 in 10.0 mi West 3.5 mph - N/A   Drizzle
9:35 PM 60.8 °F - 60.8 °F 100% 30.11 in 7.0 mi Calm Calm - 0.01 in Rain Light Rain
9:55 PM 60.8 °F - 60.8 °F 100% 30.10 in 7.0 mi Calm Calm - 0.01 in Rain Rain
10:15 PM 60.8 °F - 60.8 °F 100% 30.11 in 7.0 mi Calm Calm - N/A Rain Light Rain
10:35 PM 59.0 °F - 59.0 °F 100% 30.10 in 7.0 mi Calm Calm - N/A   Overcast
10:55 PM 59.0 °F - 59.0 °F 100% 30.11 in 10.0 mi Calm Calm - N/A Rain Rain
11:15 PM 59.0 °F - 59.0 °F 100% 30.11 in 10.0 mi Calm Calm - N/A Rain Rain
11:35 PM 59.0 °F - 59.0 °F 100% 30.11 in 7.0 mi Calm Calm - 0.02 in Rain Rain
11:55 PM 59.0 °F - 59.0 °F 100% 30.10 in 10.0 mi Calm Calm - 0.04 in Rain Light Rain